LNI547 WAOO-WAHS

Flight info

Callsign LNI547
Flight time 0h 54m
Altitude 34000
Route RITBO DCT LASEM
Aircraft B739/M-SDE2E3FGHIRWXY/LB1

Departure

Time 2026-04-16 09:17
Airport Syamsudin Noor International Airport (WAOO)

Arrival

Time 2026-04-16 10:11
Airport Jenderal Ahmad Yani Airport (WAHS)
Time Latitude Longitude Altitude Speed Heading
2026-04-16 09:05 -3.43840 114.75977 78 ft 0 kts 11°
2026-04-16 09:09 -3.43841 114.75976 78 ft 1 kts 11°
2026-04-16 09:09 -3.43856 114.75974 78 ft 2 kts 10°
2026-04-16 09:09 -3.43870 114.75970 78 ft 2 kts 11°
2026-04-16 09:10 -3.43885 114.75967 78 ft 2 kts 25°
2026-04-16 09:10 -3.43897 114.75958 78 ft 2 kts 48°
2026-04-16 09:10 -3.43905 114.75946 78 ft 2 kts 70°
2026-04-16 09:10 -3.43908 114.75931 78 ft 2 kts 92°
2026-04-16 09:11 -3.43907 114.75923 78 ft 1 kts 105°
2026-04-16 09:11 -3.43906 114.75919 78 ft 0 kts 102°
2026-04-16 09:12 -3.43907 114.75925 78 ft 2 kts 102°
2026-04-16 09:13 -3.43919 114.75954 78 ft 6 kts 122°
2026-04-16 09:13 -3.43960 114.75977 78 ft 8 kts 186°
2026-04-16 09:13 -3.44028 114.75966 78 ft 11 kts 190°
2026-04-16 09:13 -3.44106 114.75951 79 ft 10 kts 191°
2026-04-16 09:14 -3.44159 114.75909 79 ft 11 kts 258°
2026-04-16 09:14 -3.44149 114.75814 78 ft 16 kts 281°
2026-04-16 09:14 -3.44124 114.75686 77 ft 20 kts 280°
2026-04-16 09:14 -3.44098 114.75549 76 ft 19 kts 281°
2026-04-16 09:15 -3.44074 114.75416 75 ft 19 kts 279°
2026-04-16 09:15 -3.44048 114.75284 73 ft 19 kts 290°
2026-04-16 09:15 -3.44004 114.75198 72 ft 7 kts 276°
2026-04-16 09:15 -3.44030 114.75181 72 ft 3 kts 123°
2026-04-16 09:16 -3.44032 114.75188 72 ft 0 kts 101°
2026-04-16 09:16 -3.44035 114.75198 72 ft 9 kts 100°
2026-04-16 09:16 -3.44103 114.75564 77 ft 95 kts 100°
2026-04-16 09:16 -3.44270 114.76469 80 ft 168 kts 100°
2026-04-16 09:17 -3.44517 114.77685 796 ft 179 kts 100°
2026-04-16 09:17 -3.44765 114.78828 1792 ft 175 kts 107°
2026-04-16 09:17 -3.45451 114.79881 2353 ft 192 kts 139°
2026-04-16 09:17 -3.46672 114.80524 2934 ft 209 kts 160°
2026-04-16 09:18 -3.48187 114.80576 3426 ft 232 kts 197°
2026-04-16 09:18 -3.49624 114.79703 4024 ft 250 kts 220°
2026-04-16 09:18 -3.50952 114.78503 4702 ft 264 kts 222°
2026-04-16 09:18 -3.52364 114.77274 5383 ft 279 kts 221°
2026-04-16 09:19 -3.53899 114.76032 6236 ft 285 kts 219°
2026-04-16 09:19 -3.55462 114.74815 7134 ft 289 kts 219°
2026-04-16 09:19 -3.57050 114.73584 8045 ft 291 kts 219°
2026-04-16 09:19 -3.58669 114.72326 8882 ft 296 kts 220°
2026-04-16 09:20 -3.60297 114.71056 9701 ft 300 kts 220°
2026-04-16 09:20 -3.61939 114.69774 10496 ft 305 kts 220°
2026-04-16 09:20 -3.63666 114.68423 11009 ft 320 kts 220°
2026-04-16 09:20 -3.65444 114.67032 11505 ft 335 kts 219°
2026-04-16 09:21 -3.67341 114.65549 11974 ft 350 kts 219°
2026-04-16 09:21 -3.69308 114.64012 12374 ft 366 kts 219°
2026-04-16 09:21 -3.71363 114.62407 12745 ft 381 kts 219°
2026-04-16 09:21 -3.73478 114.60755 13036 ft 397 kts 219°
2026-04-16 09:22 -3.75707 114.59013 13295 ft 413 kts 219°
2026-04-16 09:22 -3.78016 114.57209 13731 ft 422 kts 219°
2026-04-16 09:22 -3.80339 114.55395 14357 ft 425 kts 218°
2026-04-16 09:22 -3.82693 114.53557 14981 ft 428 kts 218°
2026-04-16 09:23 -3.85051 114.51715 15586 ft 431 kts 218°
2026-04-16 09:23 -3.87398 114.49881 16136 ft 435 kts 218°
2026-04-16 09:23 -3.89798 114.48005 16711 ft 438 kts 218°
2026-04-16 09:23 -3.92233 114.46101 17278 ft 441 kts 217°
2026-04-16 09:24 -3.94651 114.44210 17770 ft 445 kts 217°
2026-04-16 09:24 -3.97105 114.42290 18284 ft 449 kts 217°
2026-04-16 09:24 -3.99566 114.40365 18778 ft 452 kts 217°
2026-04-16 09:24 -4.02081 114.38398 19243 ft 456 kts 217°
2026-04-16 09:25 -4.04571 114.36451 19708 ft 460 kts 217°
2026-04-16 09:25 -4.07110 114.34467 20198 ft 463 kts 217°
2026-04-16 09:25 -4.09689 114.32450 20634 ft 467 kts 217°
2026-04-16 09:25 -4.12253 114.30445 21117 ft 469 kts 217°
2026-04-16 09:26 -4.14835 114.28426 21537 ft 473 kts 216°
2026-04-16 09:26 -4.17430 114.26395 21949 ft 476 kts 216°
2026-04-16 09:26 -4.20043 114.24350 22370 ft 479 kts 216°
2026-04-16 09:26 -4.22687 114.22280 22793 ft 483 kts 216°
2026-04-16 09:27 -4.25364 114.20184 23203 ft 486 kts 216°
2026-04-16 09:27 -4.28024 114.18101 23616 ft 489 kts 216°
2026-04-16 09:27 -4.30705 114.16001 24043 ft 492 kts 216°
2026-04-16 09:27 -4.33422 114.13871 24457 ft 495 kts 216°
2026-04-16 09:28 -4.36138 114.11742 24893 ft 496 kts 216°
2026-04-16 09:28 -4.38845 114.09621 25541 ft 493 kts 216°
2026-04-16 09:28 -4.41568 114.07485 26164 ft 491 kts 216°
2026-04-16 09:28 -4.44250 114.05382 26671 ft 491 kts 215°
2026-04-16 09:29 -4.46956 114.03260 27177 ft 491 kts 215°
2026-04-16 09:29 -4.49667 114.01135 27718 ft 489 kts 215°
2026-04-16 09:29 -4.52364 113.99020 28242 ft 488 kts 215°
2026-04-16 09:29 -4.55075 113.96894 28768 ft 487 kts 215°
2026-04-16 09:30 -4.57745 113.94801 29334 ft 485 kts 215°
2026-04-16 09:30 -4.60383 113.92732 29889 ft 483 kts 215°
2026-04-16 09:30 -4.63069 113.90625 30441 ft 482 kts 215°
2026-04-16 09:30 -4.65702 113.88560 30936 ft 481 kts 215°
2026-04-16 09:31 -4.68327 113.86501 31490 ft 478 kts 215°
2026-04-16 09:31 -4.70913 113.84473 31975 ft 477 kts 215°
2026-04-16 09:31 -4.73550 113.82404 32452 ft 476 kts 215°
2026-04-16 09:31 -4.76131 113.80380 32918 ft 475 kts 215°
2026-04-16 09:32 -4.78743 113.78332 33389 ft 474 kts 215°
2026-04-16 09:32 -4.81328 113.76303 33801 ft 474 kts 215°
2026-04-16 09:32 -4.83973 113.74229 33843 ft 480 kts 215°
2026-04-16 09:33 -4.89280 113.70069 33843 ft 488 kts 216°
2026-04-16 09:33 -4.94717 113.65799 33844 ft 485 kts 216°
2026-04-16 09:34 -5.00104 113.61567 33843 ft 486 kts 215°
2026-04-16 09:34 -5.05417 113.57393 33842 ft 485 kts 216°
2026-04-16 09:35 -5.10753 113.53200 33842 ft 485 kts 215°
2026-04-16 09:35 -5.16078 113.49016 33843 ft 486 kts 215°
2026-04-16 09:36 -5.21401 113.44833 33843 ft 486 kts 215°
2026-04-16 09:36 -5.26741 113.40635 33843 ft 485 kts 216°
2026-04-16 09:37 -5.32062 113.36452 33843 ft 486 kts 215°
2026-04-16 09:37 -5.37391 113.32261 33843 ft 486 kts 216°
2026-04-16 09:38 -5.42715 113.28072 33843 ft 486 kts 216°
2026-04-16 09:38 -5.48076 113.23854 33840 ft 486 kts 215°
2026-04-16 09:39 -5.53427 113.19642 33829 ft 487 kts 216°
2026-04-16 09:39 -5.58762 113.15441 33823 ft 486 kts 216°
2026-04-16 09:40 -5.64076 113.11259 33822 ft 486 kts 216°
2026-04-16 09:40 -5.69427 113.07045 33822 ft 486 kts 216°
2026-04-16 09:41 -5.74734 113.02865 33822 ft 487 kts 215°
2026-04-16 09:41 -5.80057 112.98671 33823 ft 487 kts 215°
2026-04-16 09:42 -5.85317 112.94340 33822 ft 489 kts 221°
2026-04-16 09:42 -5.89738 112.89098 33823 ft 493 kts 233°
2026-04-16 09:43 -5.93348 112.83208 33822 ft 495 kts 238°
2026-04-16 09:43 -5.96683 112.77200 33823 ft 495 kts 239°
2026-04-16 09:44 -6.00022 112.71129 33823 ft 495 kts 239°
2026-04-16 09:44 -6.03386 112.65080 33825 ft 496 kts 239°
2026-04-16 09:45 -6.06769 112.59058 33831 ft 495 kts 238°
2026-04-16 09:45 -6.10173 112.53030 33834 ft 494 kts 238°
2026-04-16 09:46 -6.13589 112.46994 33835 ft 495 kts 238°
2026-04-16 09:46 -6.17008 112.40954 33835 ft 494 kts 238°
2026-04-16 09:47 -6.20385 112.34988 33840 ft 494 kts 239°
2026-04-16 09:47 -6.23570 112.29355 33843 ft 494 kts 239°
2026-04-16 09:48 -6.26979 112.23328 33843 ft 494 kts 239°
2026-04-16 09:48 -6.30369 112.17331 33844 ft 494 kts 239°
2026-04-16 09:49 -6.33764 112.11320 33843 ft 493 kts 239°
2026-04-16 09:49 -6.37155 112.05316 33843 ft 492 kts 239°
2026-04-16 09:50 -6.40522 111.99352 33843 ft 491 kts 239°
2026-04-16 09:50 -6.43905 111.93357 33843 ft 491 kts 239°
2026-04-16 09:51 -6.47290 111.87359 33843 ft 493 kts 239°
2026-04-16 09:51 -6.50667 111.81371 33843 ft 493 kts 239°
2026-04-16 09:52 -6.54046 111.75379 33843 ft 492 kts 239°
2026-04-16 09:52 -6.57422 111.69390 33844 ft 492 kts 239°
2026-04-16 09:53 -6.60590 111.63288 33846 ft 493 kts 246°
2026-04-16 09:53 -6.62445 111.56677 33254 ft 488 kts 259°
2026-04-16 09:53 -6.62915 111.53350 32552 ft 486 kts 262°
2026-04-16 09:54 -6.63265 111.49922 31577 ft 491 kts 264°
2026-04-16 09:54 -6.63554 111.46491 30630 ft 495 kts 264°
2026-04-16 09:54 -6.63825 111.43053 29719 ft 497 kts 264°
2026-04-16 09:54 -6.64100 111.39590 28792 ft 499 kts 264°
2026-04-16 09:55 -6.64385 111.36118 27811 ft 503 kts 264°
2026-04-16 09:55 -6.64689 111.32573 26859 ft 505 kts 264°
2026-04-16 09:55 -6.64999 111.29072 25854 ft 508 kts 264°
2026-04-16 09:55 -6.65320 111.25556 24962 ft 507 kts 264°
2026-04-16 09:56 -6.65648 111.22037 24208 ft 500 kts 263°
2026-04-16 09:56 -6.65967 111.18654 23483 ft 488 kts 263°
2026-04-16 09:56 -6.66286 111.15287 22757 ft 476 kts 263°
2026-04-16 09:56 -6.66597 111.12026 22042 ft 465 kts 263°
2026-04-16 09:57 -6.66901 111.08853 21361 ft 455 kts 263°
2026-04-16 09:57 -6.67200 111.05733 20677 ft 445 kts 263°
2026-04-16 09:57 -6.67496 111.02653 19983 ft 436 kts 264°
2026-04-16 09:57 -6.67784 110.99656 19317 ft 427 kts 264°
2026-04-16 09:58 -6.68066 110.96720 18668 ft 418 kts 264°
2026-04-16 09:58 -6.68341 110.93848 18019 ft 409 kts 264°
2026-04-16 09:58 -6.68612 110.91016 17374 ft 401 kts 264°
2026-04-16 09:58 -6.68869 110.88337 16778 ft 392 kts 264°
2026-04-16 09:59 -6.69053 110.86418 16345 ft 386 kts 264°
2026-04-16 09:59 -6.69301 110.83832 15762 ft 380 kts 264°
2026-04-16 09:59 -6.69549 110.81233 15203 ft 375 kts 264°
2026-04-16 09:59 -6.69797 110.78625 14636 ft 371 kts 264°
2026-04-16 10:00 -6.70042 110.76063 14066 ft 366 kts 264°
2026-04-16 10:00 -6.70282 110.73537 13491 ft 360 kts 264°
2026-04-16 10:00 -6.70518 110.71059 12924 ft 353 kts 264°
2026-04-16 10:01 -6.70974 110.66259 11861 ft 340 kts 264°
2026-04-16 10:01 -6.71199 110.63900 11337 ft 334 kts 264°
2026-04-16 10:01 -6.71417 110.61601 10844 ft 328 kts 264°
2026-04-16 10:01 -6.71633 110.59322 10363 ft 322 kts 264°
2026-04-16 10:02 -6.71844 110.57098 9892 ft 317 kts 264°
2026-04-16 10:02 -6.72050 110.54924 9417 ft 312 kts 264°
2026-04-16 10:02 -6.72254 110.52776 8990 ft 306 kts 264°
2026-04-16 10:02 -6.72453 110.50678 8564 ft 301 kts 264°
2026-04-16 10:03 -6.72649 110.48602 8131 ft 297 kts 264°
2026-04-16 10:03 -6.72843 110.46555 7694 ft 293 kts 264°
2026-04-16 10:03 -6.73035 110.44509 7254 ft 289 kts 264°
2026-04-16 10:03 -6.73222 110.42512 6823 ft 286 kts 264°
2026-04-16 10:04 -6.73405 110.40543 6428 ft 282 kts 264°
2026-04-16 10:04 -6.73589 110.38595 6062 ft 277 kts 264°
2026-04-16 10:04 -6.73768 110.36697 5712 ft 272 kts 264°
2026-04-16 10:04 -6.73944 110.34804 5355 ft 268 kts 264°
2026-04-16 10:05 -6.74118 110.32970 5001 ft 265 kts 264°
2026-04-16 10:05 -6.74295 110.31110 4654 ft 262 kts 263°
2026-04-16 10:05 -6.74648 110.29310 4348 ft 262 kts 249°
2026-04-16 10:05 -6.75609 110.27809 4051 ft 257 kts 223°
2026-04-16 10:06 -6.77000 110.26658 3807 ft 256 kts 215°
2026-04-16 10:06 -6.78409 110.25582 3583 ft 257 kts 216°
2026-04-16 10:06 -6.79810 110.24448 3340 ft 256 kts 218°
2026-04-16 10:06 -6.81231 110.23340 3110 ft 254 kts 212°
2026-04-16 10:07 -6.82831 110.22681 3013 ft 246 kts 184°
2026-04-16 10:07 -6.84479 110.22969 3004 ft 236 kts 151°
2026-04-16 10:07 -6.85731 110.23947 2882 ft 222 kts 130°
2026-04-16 10:07 -6.86745 110.25102 2666 ft 217 kts 129°
2026-04-16 10:08 -6.87740 110.26239 2441 ft 213 kts 128°
2026-04-16 10:08 -6.88690 110.27354 2221 ft 209 kts 128°
2026-04-16 10:08 -6.89601 110.28446 1978 ft 196 kts 128°
2026-04-16 10:08 -6.90450 110.29476 1736 ft 183 kts 127°
2026-04-16 10:09 -6.91248 110.30398 1619 ft 164 kts 129°
2026-04-16 10:09 -6.91993 110.31201 1406 ft 154 kts 129°
2026-04-16 10:09 -6.92669 110.32024 1092 ft 147 kts 126°
2026-04-16 10:09 -6.93300 110.32816 923 ft 146 kts 126°
2026-04-16 10:10 -6.93964 110.33609 745 ft 148 kts 128°
2026-04-16 10:10 -6.94615 110.34398 537 ft 146 kts 127°
2026-04-16 10:10 -6.95265 110.35199 315 ft 146 kts 128°
2026-04-16 10:10 -6.95916 110.35968 138 ft 144 kts 129°
2026-04-16 10:11 -6.96573 110.36736 26 ft 138 kts 128°
2026-04-16 10:11 -6.97110 110.37376 28 ft 88 kts 130°
2026-04-16 10:11 -6.97366 110.37678 31 ft 29 kts 131°
2026-04-16 10:11 -6.97448 110.37762 32 ft 10 kts 143°
2026-04-16 10:12 -6.97455 110.37771 32 ft 1 kts 79°
2026-04-16 10:12 -6.97434 110.37756 32 ft 8 kts 313°
2026-04-16 10:12 -6.97372 110.37688 31 ft 17 kts 312°
2026-04-16 10:12 -6.97289 110.37592 30 ft 18 kts 310°
2026-04-16 10:13 -6.97210 110.37495 29 ft 17 kts 309°
2026-04-16 10:13 -6.97143 110.37422 28 ft 12 kts 331°
2026-04-16 10:13 -6.97063 110.37447 28 ft 14 kts 39°
2026-04-16 10:13 -6.96997 110.37503 27 ft 11 kts 40°
2026-04-16 10:14 -6.96938 110.37551 27 ft 8 kts 32°
2026-04-16 10:14 -6.96894 110.37572 27 ft 6 kts 35°
2026-04-16 10:14 -6.96856 110.37601 26 ft 5 kts 40°
2026-04-16 10:14 -6.96848 110.37608 26 ft 0 kts 41°